THOR AGENA D R/B, 733

Orbit data source: Space-Track

THOR AGENA D R/B, 733 is space debris in SSO originally from a launch on Sun, 19 Jan 1964 UTC launched from the Air Force Western Test Range (AFWTR). Debris objects in space refer to the collection of defunct objects orbiting the Earth. Examples of debris include non-operational satellites, rocket bodies, and fragments generated from explosions, collisions, or faulty payload assembly.

Loading next visibility...
Identifier
733, 1964-002A
Orbit
SSO
Country
Flag of USUS
Related business
Manufacturer
LMSC
Mission
Spacecraft
Bus & Motor
AGENA D, Unknown motor
Mass
600 kg wet, 600 kg dry
Launch date (UTC)
1964-01-19 (62 years ago)
Launch vehicle
Unknown
Launch site
Air Force Western Test Range (AFWTR)
Object type
Payload
Rocket body
Debris
Shape & HBR
Unknown
Radar Cross Section
Large (>1 m²)

Expand to show TLE details & history
Last TLE update: 11 hours ago

TLE from 11 hours ago
0 THOR AGENA D R/B
1 00733U 64002A   26034.47256658  .00000255  00000-0  10808-3 0  9995
2 00733  99.1227  45.9472 0032881 359.9165   0.2006 14.33997812233391
Epoch: 2026-02-03T11:20Z
TLE epoch observation values (Epoch: 2026-02-03T11:20:29.752Z)
Latitude
-0.00012°
Longitude
102.17025°
Altitude
757.783 km
Speed
7.488 km/s
True Right ascension
03h 03m 47s
True Declination
0° 00' 00"
Sunlit
Object was in daylight at epoch
Visualization orbit readout
Latitude
Unknown
Longitude
Unknown
Altitude
Unknown
Speed
Unknown
Apparent Right ascension
Unknown
Apparent Declination
Unknown
Sunlit
N/A
Visualization observer readout
Local Sidereal Time
00:18:22
Azimuth
Unknown
Elevation
Unknown
Doppler factor
Unknown
Orbital elements
Apogee altitude
799.081 km
Perigee altitude
752.037 km
Semi-major axis
7,153.696 km
Eccentricity
0.00329
Inclination
99.1227°
RAAN
45.9472°
Arg. of periapsis
359.9165°
True anomaly
0.20192°
Mean anomaly
0.2006°
Eccentric anomaly
0.20126°
Mean motion
3.58713 °/min
Orbital period
100.36 mins
BSTAR
0.00010808
Loading maneuver chart data...
Computing Atmospheric mass density...
Loading historical data...
Loading historical data...
Loading historical data...
Loading historical data...
Loading historical data...
Loading historical data...
Loading historical data...
Other satellites on launch #2 in the year 1964 (1964-01-19 UTC)

Documentation

Showing up to 5 results
|